GW0478 Weather Reports


time (UTC)temp
C
wind
direction
speed
KPH
gust
KPH
rain 1hr
cm
rain 24hr
cm
rain mn
cm
humidity
%
barometer
mb
20260502152218 6 291 20.9 25.7 0.00 0.00 0.00 57 1012.2
20260502151715 6 8 4.8 14.5 0.00 0.00 0.00 55 1012.0
20260502151212 6 342 8.0 14.5 0.00 0.00 0.00 57 1012.3
20260502150709 6 304 12.9 20.9 0.00 0.00 0.00 58 1012.5
20260502150206 6 275 9.7 14.5 0.00 0.00 0.00 62 1012.2
20260502140130 5 348 14.5 24.1 0.00 0.00 0.00 66 1012.8
20260502130555 3 325 12.9 17.7 0.00 0.00 0.00 77 1013.2
20260502123538 2 331 8.0 12.9 0.00 0.00 0.00 80 1013.1
20260502123034 1 279 8.0 14.5 0.00 0.00 0.00 82 1013.3
20260502122531 1 294 8.0 14.5 0.00 0.00 0.00 83 1013.2
20260502122028 1 290 8.0 12.9 0.00 0.00 0.00 85 1013.3
20260502121526 1 258 8.0 11.3 0.00 0.00 0.00 84 1013.1
20260502121023 1 295 9.7 14.5 0.00 0.00 0.00 84 1013.2
20260502120519 0 277 8.0 11.3 0.00 0.00 0.00 86 1013.1
20260502115514 0 291 8.0 9.7 0.00 0.00 0.00 87 1013.2
20260502115009 0 271 8.0 11.3 0.00 0.00 0.00 88 1013.1
20260502114507 0 293 4.8 9.7 0.00 0.00 0.00 89 1013.3
20260502114003 0 281 4.8 8.0 0.00 0.00 0.00 89 1013.2
20260502113501 0 298 4.8 9.7 0.00 0.00 0.00 90 1013.3
20260502112959 0 301 6.4 12.9 0.00 0.00 0.00 90 1013.1
20260502112456 0 292 4.8 8.0 0.00 0.00 0.00 91 1013.1
20260502111954 0 267 8.0 9.7 0.00 0.00 0.00 91 1013.1
20260502111451 0 290 8.0 9.7 0.00 0.00 0.00 91 1013.1
20260502110949 0 305 4.8 9.7 0.00 0.00 0.00 91 1013.2
20260502110446 0 273 4.8 9.7 0.00 0.00 0.00 92 1013.1
20260502105943 0 317 6.4 8.0 0.00 0.00 0.00 90 1012.8
20260502105440 0 293 4.8 9.7 0.00 0.00 0.00 89 1013.0
20260502104938 0 265 6.4 9.7 0.00 0.00 0.00 89 1013.0
20260502104435 0 291 8.0 9.7 0.00 0.00 0.00 89 1012.9
20260502103932 0 276 8.0 9.7 0.00 0.00 0.00 89 1012.9
20260502103430 0 328 6.4 8.0 0.00 0.00 0.00 90 1012.8
20260502102927 0 318 3.2 3.2 0.00 0.00 0.00 90 1012.9
20260502102424 0 257 4.8 8.0 0.00 0.00 0.00 89 1012.8
20260502101921 0 293 3.2 4.8 0.00 0.00 0.00 90 1012.8
20260502101419 0 292 6.4 9.7 0.00 0.00 0.00 89 1012.7
20260502100917 0 289 6.4 8.0 0.00 0.00 0.00 89 1013.0
20260502100416 0 304 3.2 8.0 0.00 0.00 0.00 89 1012.8
20260502091350 0 328 4.8 9.7 0.00 0.00 0.00 90 1012.7
20260502090848 0 283 8.0 9.7 0.00 0.00 0.00 90 1012.5
20260502090344 0 302 4.8 8.0 0.00 0.00 0.00 90 1012.5
20260502071239 1 292 6.4 9.7 0.00 0.00 0.00 89 1012.7
20260502070737 1 299 8.0 9.7 0.00 0.00 0.00 89 1012.7
20260502070234 1 339 4.8 8.0 0.00 0.00 0.00 88 1012.5
20260502065733 1 285 6.4 8.0 0.00 0.00 0.00 88 1012.6
20260502065231 1 310 6.4 9.7 0.00 0.00 0.00 88 1012.5
20260502064729 1 293 9.7 11.3 0.00 0.00 0.00 88 1012.4
20260502064226 1 321 6.4 11.3 0.00 0.00 0.00 87 1012.4
20260502063723 1 286 6.4 9.7 0.00 0.00 0.00 87 1012.5
20260502063221 1 294 4.8 11.3 0.00 0.00 0.00 86 1012.5
20260502062718 1 307 4.8 9.7 0.00 0.00 0.00 86 1012.6
20260502062216 1 319 6.4 9.7 0.00 0.00 0.00 86 1012.7
20260502061714 1 301 6.4 8.0 0.00 0.00 0.00 85 1012.5
20260502061211 1 319 8.0 8.0 0.00 0.00 0.00 84 1012.7
20260502060706 1 292 3.2 8.0 0.00 0.00 0.00 84 1012.8
20260502060203 1 278 4.8 8.0 0.00 0.00 0.00 83 1012.8
20260502055701 1 290 3.2 4.8 0.00 0.00 0.00 83 1012.7
20260502055158 1 298 4.8 8.0 0.00 0.00 0.00 82 1012.6
20260502054658 1 313 4.8 4.8 0.00 0.00 0.00 83 1012.7
20260502054154 1 318 4.8 8.0 0.00 0.00 0.00 82 1012.9
20260502053652 1 320 4.8 8.0 0.00 0.00 0.00 82 1012.7
20260502053148 2 308 4.8 8.0 0.00 0.00 0.00 82 1012.8
20260502052647 2 303 3.2 4.8 0.00 0.00 0.00 82 1012.7
20260502052145 2 306 4.8 8.0 0.00 0.00 0.00 81 1012.8
20260502051643 2 316 3.2 9.7 0.00 0.00 0.00 80 1012.8
20260502051140 2 284 4.8 8.0 0.00 0.00 0.00 80 1012.7
20260502050636 2 300 8.0 9.7 0.00 0.00 0.00 79 1012.9
20260502050133 2 322 8.0 9.7 0.00 0.00 0.00 79 1012.7
20260502045630 2 324 6.4 11.3 0.00 0.00 0.00 80 1012.7
20260502045127 2 320 4.8 8.0 0.00 0.00 0.00 79 1012.6
20260502044623 2 278 4.8 11.3 0.00 0.00 0.00 79 1012.6
20260502044120 2 310 8.0 9.7 0.00 0.00 0.00 79 1012.6
20260502043618 2 318 4.8 9.7 0.00 0.00 0.00 80 1012.6
20260502043114 2 343 6.4 9.7 0.00 0.00 0.00 79 1012.5
20260502042609 2 336 4.8 11.3 0.00 0.00 0.00 79 1012.7
20260502042106 2 339 6.4 11.3 0.00 0.00 0.00 79 1012.7
20260502041604 2 320 6.4 9.7 0.00 0.00 0.00 81 1012.7
20260502041101 2 283 6.4 8.0 0.00 0.00 0.00 81 1012.4
20260502040557 2 319 6.4 9.7 0.00 0.00 0.00 79 1012.4
20260502040055 2 322 4.8 9.7 0.00 0.00 0.00 79 1012.7
20260502035550 2 275 6.4 9.7 0.00 0.03 0.03 78 1012.5
20260502035048 2 351 8.0 9.7 0.00 0.03 0.03 78 1012.5
20260502034546 2 350 6.4 8.0 0.00 0.03 0.03 77 1012.7
20260502034044 2 341 4.8 11.3 0.00 0.03 0.03 78 1012.5
20260502033542 2 319 8.0 9.7 0.00 0.03 0.03 77 1012.7
20260502033039 2 303 4.8 8.0 0.00 0.03 0.03 77 1012.9
20260502032535 2 329 4.8 9.7 0.00 0.03 0.03 77 1012.8
20260502032032 2 345 4.8 9.7 0.00 0.03 0.03 77 1012.8
20260502031530 2 316 4.8 11.3 0.00 0.03 0.03 77 1012.8
20260502031027 2 327 4.8 8.0 0.00 0.03 0.03 77 1012.7
20260502030526 2 330 9.7 12.9 0.00 0.03 0.03 77 1012.8
20260502030023 2 311 4.8 4.8 0.00 0.03 0.03 79 1012.7
20260502025520 2 298 4.8 8.0 0.00 0.03 0.03 76 1012.7
20260502025019 2 314 6.4 9.7 0.00 0.03 0.03 75 1012.8
20260502024515 2 325 3.2 4.8 0.00 0.03 0.03 77 1012.7
20260502024014 2 327 8.0 9.7 0.00 0.03 0.03 75 1012.6
20260502023511 2 310 3.2 8.0 0.00 0.03 0.03 77 1012.7
20260502023008 2 330 6.4 9.7 0.00 0.03 0.03 74 1012.7
20260502022505 2 324 6.4 8.0 0.00 0.03 0.03 75 1012.8
20260502022003 2 315 4.8 8.0 0.00 0.03 0.03 75 1012.7
20260502021459 2 308 4.8 8.0 0.00 0.03 0.03 76 1012.8
20260502020956 2 285 3.2 4.8 0.00 0.03 0.03 75 1012.7
20260502020454 2 310 4.8 4.8 0.00 0.03 0.03 74 1012.7
20260502015950 2 318 3.2 4.8 0.00 0.03 0.03 74 1012.6
20260502015449 2 291 3.2 4.8 0.00 0.03 0.03 76 1012.6
20260502014945 2 328 1.6 3.2 0.00 0.03 0.03 76 1012.5
20260502014442 3 320 3.2 4.8 0.00 0.03 0.03 75 1012.5
20260502013938 3 356 3.2 8.0 0.00 0.03 0.03 73 1012.6
20260502013434 3 322 6.4 8.0 0.00 0.03 0.03 72 1012.7
20260502012931 3 337 6.4 8.0 0.00 0.03 0.03 73 1012.5
20260502012428 3 327 4.8 4.8 0.00 0.03 0.03 72 1012.5
20260502011926 3 346 4.8 8.0 0.00 0.03 0.03 73 1012.3
20260502011422 3 356 6.4 11.3 0.00 0.03 0.03 71 1012.4
20260502010919 3 10 3.2 9.7 0.00 0.03 0.03 72 1012.3
20260502010415 3 23 4.8 8.0 0.00 0.03 0.03 73 1012.1
20260502005912 3 6 4.8 4.8 0.00 0.03 0.03 72 1012.1
20260502005410 3 41 4.8 8.0 0.00 0.03 0.03 71 1012.3
20260502004908 3 351 4.8 8.0 0.00 0.03 0.03 72 1012.3
20260502004403 3 16 4.8 9.7 0.00 0.03 0.03 71 1012.3
20260502003901 3 30 6.4 8.0 0.00 0.03 0.03 70 1012.2
20260502003358 3 37 4.8 4.8 0.00 0.03 0.03 70 1012.1
20260502002854 3 22 3.2 4.8 0.00 0.03 0.03 70 1012.1
20260502002351 3 50 3.2 4.8 0.00 0.03 0.03 70 1012.0
20260502001848 3 358 4.8 9.7 0.00 0.03 0.03 70 1012.1
20260502001346 3 359 8.0 9.7 0.00 0.03 0.03 68 1011.6
20260502000844 3 32 1.6 9.7 0.00 0.03 0.03 70 1011.9
20260502000342 3 46 3.2 8.0 0.00 0.03 0.03 67 1011.8
20260501235838 3 305 9.7 14.5 0.00 0.03 0.03 68 1012.0
20260501235333 3 13 4.8 8.0 0.00 0.03 0.03 69 1011.8
20260501234829 4 12 4.8 4.8 0.00 0.03 0.03 69 1011.6
20260501234326 3 340 6.4 8.0 0.00 0.03 0.03 69 1011.8
20260501233825 3 25 1.6 4.8 0.00 0.03 0.03 69 1011.7
20260501233321 3 26 6.4 8.0 0.00 0.03 0.03 69 1011.8
20260501232817 3 45 1.6 9.7 0.00 0.03 0.03 68 1011.5
20260501232315 4 345 9.7 12.9 0.00 0.03 0.03 68 1011.9
20260501231812 3 335 9.7 12.9 0.00 0.03 0.03 68 1011.8
20260501231310 3 316 11.3 14.5 0.00 0.03 0.03 66 1011.7
20260501230808 4 336 9.7 11.3 0.00 0.03 0.03 67 1011.7
20260501230306 4 347 6.4 11.3 0.00 0.03 0.03 67 1011.7
20260501225803 4 5 6.4 12.9 0.00 0.03 0.03 68 1011.5
20260501225305 4 337 6.4 9.7 0.00 0.03 0.03 70 1011.7
20260501224757 4 24 6.4 16.1 0.00 0.03 0.03 66 1011.8
20260501224255 4 349 8.0 16.1 0.00 0.03 0.03 69 1011.7
20260501223750 4 335 11.3 16.1 0.00 0.03 0.03 67 1011.8
20260501223247 4 2 8.0 14.5 0.00 0.03 0.03 66 1011.7
20260501222743 4 347 11.3 20.9 0.00 0.03 0.03 66 1011.5
20260501222241 4 26 16.1 25.7 0.00 0.03 0.03 64 1011.5
20260501221738 4 8 12.9 16.1 0.00 0.03 0.03 65 1011.6
20260501221235 5 359 11.3 17.7 0.00 0.03 0.03 67 1011.4
20260501220732 5 15 8.0 16.1 0.00 0.03 0.03 64 1011.3
20260501220229 5 333 16.1 16.1 0.00 0.03 0.03 64 1011.4
20260501215726 5 13 8.0 22.5 0.00 0.03 0.03 65 1011.4
20260501215221 5 330 11.3 14.5 0.00 0.03 0.03 65 1011.3
20260501214717 5 333 17.7 20.9 0.00 0.03 0.03 62 1011.1
20260501214213 5 31 8.0 11.3 0.00 0.03 0.03 64 1011.2
20260501213709 5 340 9.7 17.7 0.00 0.03 0.03 63 1011.2
20260501213205 5 341 17.7 24.1 0.00 0.03 0.03 60 1011.1
20260501212702 5 10 11.3 17.7 0.00 0.03 0.03 59 1011.0
20260501212159 5 4 14.5 17.7 0.00 0.03 0.03 59 1010.7
20260501211655 5 349 16.1 17.7 0.00 0.03 0.03 60 1010.6
20260501211153 5 11 8.0 20.9 0.00 0.03 0.03 60 1010.7
20260501210650 5 33 4.8 22.5 0.00 0.03 0.03 61 1010.9
20260501210146 5 4 9.7 16.1 0.00 0.03 0.03 63 1010.6
20260501205642 5 12 9.7 14.5 0.00 0.03 0.03 62 1010.6
20260501205140 5 20 11.3 17.7 0.00 0.03 0.03 62 1010.9
20260501204637 5 4 8.0 14.5 0.00 0.03 0.03 65 1010.7
20260501204133 5 8 8.0 11.3 0.00 0.03 0.03 64 1010.9
20260501203629 5 350 11.3 17.7 0.00 0.03 0.03 63 1010.6
20260501203127 5 9 11.3 16.1 0.00 0.03 0.03 61 1010.7
20260501202624 5 12 12.9 22.5 0.00 0.03 0.03 62 1010.6
20260501202121 5 1 4.8 12.9 0.00 0.03 0.03 65 1011.1
20260501201618 5 9 8.0 12.9 0.00 0.03 0.03 66 1010.9
20260501201114 5 354 12.9 14.5 0.00 0.03 0.03 66 1010.5
20260501200611 5 52 8.0 17.7 0.00 0.03 0.03 65 1010.7
20260501200109 5 5 8.0 11.3 0.00 0.03 0.03 66 1010.9
20260501195606 5 336 14.5 20.9 0.00 0.03 0.03 66 1011.0
20260501195101 5 345 11.3 14.5 0.00 0.03 0.03 66 1010.7
20260501194557 5 326 8.0 14.5 0.00 0.03 0.03 66 1010.7
20260501194053 5 0 11.3 14.5 0.00 0.03 0.03 65 1010.6
20260501193550 5 7 14.5 16.1 0.00 0.03 0.03 67 1010.9
20260501193049 5 358 14.5 24.1 0.00 0.03 0.03 67 1010.7
20260501192545 5 324 12.9 17.7 0.00 0.03 0.03 67 1010.9
20260501192043 5 336 9.7 14.5 0.00 0.03 0.03 67 1010.9
20260501191540 5 348 12.9 22.5 0.00 0.03 0.03 66 1010.7
20260501191037 5 20 14.5 17.7 0.00 0.03 0.03 65 1010.7
20260501190533 5 6 16.1 20.9 0.00 0.03 0.03 64 1010.7
20260501190029 5 10 14.5 17.7 0.00 0.03 0.03 65 1010.6
20260501185525 5 325 8.0 22.5 0.00 0.03 0.03 64 1010.7
20260501185021 5 328 12.9 17.7 0.00 0.03 0.03 64 1010.5
20260501184518 5 330 14.5 20.9 0.00 0.03 0.03 63 1010.4
20260501184018 5 341 17.7 22.5 0.00 0.03 0.03 64 1010.5
20260501183515 5 310 11.3 27.4 0.00 0.03 0.03 65 1010.5
20260501183011 5 314 12.9 24.1 0.00 0.03 0.03 66 1010.5
20260501182508 5 335 11.3 17.7 0.00 0.03 0.03 65 1010.6
20260501182005 5 18 8.0 24.1 0.00 0.03 0.03 64 1010.6
20260501181502 5 337 14.5 20.9 0.00 0.03 0.03 62 1010.5
20260501180959 5 313 12.9 22.5 0.00 0.03 0.03 59 1010.2
20260501180456 5 4 11.3 17.7 0.00 0.03 0.03 61 1010.3
20260501175952 5 337 20.9 25.7 0.00 0.03 0.03 60 1010.2
20260501175449 5 353 11.3 25.7 0.00 0.03 0.03 60 1010.3
20260501174946 5 334 14.5 29.0 0.00 0.03 0.03 57 1010.5
20260501174444 6 324 16.1 20.9 0.00 0.03 0.03 59 1010.3
20260501173941 5 330 14.5 22.5 0.00 0.03 0.03 61 1010.4
20260501173438 5 358 12.9 29.0 0.00 0.03 0.03 60 1010.3
20260501172934 5 64 20.9 24.1 0.00 0.03 0.03 61 1010.2
20260501172430 5 323 16.1 25.7 0.00 0.03 0.03 59 1010.2
20260501171925 6 338 14.5 22.5 0.00 0.03 0.03 59 1010.0
20260501171416 5 9 14.5 22.5 0.00 0.03 0.03 61 1010.2
20260501170913 5 9 11.3 17.7 0.00 0.03 0.03 61 1010.2
20260501170410 5 335 14.5 20.9 0.00 0.03 0.03 62 1010.2
20260501165908 5 336 8.0 11.3 0.00 0.03 0.03 61 1010.2
20260501165405 6 11 17.7 22.5 0.00 0.03 0.03 61 1010.5
20260501164903 6 30 9.7 14.5 0.00 0.03 0.03 62 1010.5
20260501164400 5 318 14.5 17.7 0.00 0.03 0.03 64 1010.5
20260501163856 5 353 8.0 14.5 0.00 0.03 0.03 63 1010.4
20260501163353 6 23 8.0 17.7 0.00 0.03 0.03 64 1010.3
20260501162850 5 7 14.5 24.1 0.00 0.03 0.03 64 1010.4
20260501162346 5 349 16.1 24.1 0.00 0.03 0.03 62 1010.3
20260501161843 6 15 16.1 17.7 0.00 0.03 0.03 64 1010.5
20260501161340 5 325 14.5 22.5 0.00 0.03 0.03 65 1010.5
20260501160837 5 322 8.0 14.5 0.00 0.03 0.03 68 1010.2
20260501160333 5 7 12.9 20.9 0.00 0.03 0.03 67 1010.4